Time,TemperatureF,DewpointF,PressureIn,WindDirection,WindDirectionDegrees,WindSpeedMPH,WindSpeedGustMPH,Humidity,HourlyPrecipIn,Conditions,Clouds,dailyrainin,SoftwareType,DateUTC
2013-07-11 00:00:00,90.1,58.0,29.92,South,184,0.0,4.5,34,0.00,,---,0.00,VWS V14.00,2013-07-11 05:00:00,
2013-07-11 00:10:00,89.6,57.5,29.92,South,186,0.0,4.5,34,0.00,,---,0.00,VWS V14.00,2013-07-11 05:10:00,
2013-07-11 00:20:00,89.2,58.0,29.92,SSE,164,0.0,3.6,35,0.00,,---,0.00,VWS V14.00,2013-07-11 05:20:00,
2013-07-11 00:30:00,89.1,58.7,29.92,SSE,166,0.0,3.1,36,0.00,,---,0.00,VWS V14.00,2013-07-11 05:30:00,
2013-07-11 00:40:00,88.9,58.5,29.92,SSE,164,0.0,0.0,36,0.00,,---,0.00,VWS V14.00,2013-07-11 05:40:00,
2013-07-11 00:50:00,88.5,59.0,29.92,South,170,0.0,4.0,37,0.00,,---,0.00,VWS V14.00,2013-07-11 05:50:00,
2013-07-11 01:00:00,88.3,59.5,29.92,East,88,3.6,5.4,38,0.00,,---,0.00,VWS V14.00,2013-07-11 06:00:00,
2013-07-11 01:10:00,88.3,59.5,29.92,ESE,114,0.0,4.9,38,0.00,,---,0.00,VWS V14.00,2013-07-11 06:10:00,
2013-07-11 01:20:00,88.2,59.4,29.92,SE,129,0.0,3.1,38,0.00,,---,0.00,VWS V14.00,2013-07-11 06:20:00,
2013-07-11 01:30:00,87.8,59.1,29.92,SE,143,2.7,4.9,38,0.00,,---,0.00,VWS V14.00,2013-07-11 06:30:00,
2013-07-11 01:40:00,87.4,59.5,29.95,SSE,150,0.0,4.5,39,0.00,,---,0.00,VWS V14.00,2013-07-11 06:40:00,
2013-07-11 01:50:00,87.1,59.2,29.95,SSE,152,0.0,0.0,39,0.00,,---,0.00,VWS V14.00,2013-07-11 06:50:00,
2013-07-11 02:00:00,86.7,59.5,29.95,SSE,152,0.0,3.1,40,0.00,,---,0.00,VWS V14.00,2013-07-11 07:00:00,
2013-07-11 02:10:00,86.4,59.9,29.95,SSE,151,0.0,3.6,41,0.00,,---,0.00,VWS V14.00,2013-07-11 07:10:00,
2013-07-11 02:20:00,86.0,59.6,29.95,SSE,151,0.0,3.1,41,0.00,,---,0.00,VWS V14.00,2013-07-11 07:20:00,
2013-07-11 02:30:00,85.6,59.9,29.95,SSE,153,0.0,0.0,42,0.00,,---,0.00,VWS V14.00,2013-07-11 07:30:00,
2013-07-11 02:40:00,85.3,60.3,29.95,SSE,150,0.0,3.6,43,0.00,,---,0.00,VWS V14.00,2013-07-11 07:40:00,
2013-07-11 02:50:00,85.1,61.4,29.95,SSE,151,0.0,0.0,45,0.00,,---,0.00,VWS V14.00,2013-07-11 07:50:00,
2013-07-11 03:00:00,84.9,61.8,29.95,SSE,153,0.0,3.6,46,0.00,,---,0.00,VWS V14.00,2013-07-11 08:00:00,
2013-07-11 03:10:00,84.6,62.1,29.95,SSE,153,0.0,0.0,47,0.00,,---,0.00,VWS V14.00,2013-07-11 08:10:00,
2013-07-11 03:20:00,84.4,62.6,29.95,South,172,0.0,0.0,48,0.00,,---,0.00,VWS V14.00,2013-07-11 08:20:00,
2013-07-11 03:29:00,84.0,62.8,29.95,South,172,0.0,0.0,49,0.00,,---,0.00,VWS V14.00,2013-07-11 08:29:00,
2013-07-11 03:39:00,83.8,63.8,29.95,South,174,0.0,0.0,51,0.00,,---,0.00,VWS V14.00,2013-07-11 08:39:00,
2013-07-11 03:49:00,83.7,64.2,29.95,South,171,0.0,2.7,52,0.00,,---,0.00,VWS V14.00,2013-07-11 08:49:00,
2013-07-11 03:59:00,83.7,65.3,29.95,South,172,0.0,2.7,54,0.00,,---,0.00,VWS V14.00,2013-07-11 08:59:00,
2013-07-11 04:09:00,83.7,65.8,29.95,South,171,0.0,0.0,55,0.00,,---,0.00,VWS V14.00,2013-07-11 09:09:00,
2013-07-11 04:19:00,83.5,66.2,29.95,South,171,0.0,2.7,56,0.00,,---,0.00,VWS V14.00,2013-07-11 09:19:00,
2013-07-11 04:29:00,83.3,66.5,29.95,South,172,0.0,0.0,57,0.00,,---,0.00,VWS V14.00,2013-07-11 09:29:00,
2013-07-11 04:39:00,83.1,66.8,29.95,South,172,0.0,0.0,58,0.00,,---,0.00,VWS V14.00,2013-07-11 09:39:00,
2013-07-11 04:49:00,83.1,67.3,29.95,South,171,0.0,2.7,59,0.00,,---,0.00,VWS V14.00,2013-07-11 09:49:00,
2013-07-11 04:59:00,83.1,67.8,29.95,South,170,0.0,0.0,60,0.00,,---,0.00,VWS V14.00,2013-07-11 09:59:00,
2013-07-11 05:09:00,83.1,67.8,29.95,South,172,0.0,0.0,60,0.00,,---,0.00,VWS V14.00,2013-07-11 10:09:00,
2013-07-11 05:19:00,83.3,68.0,29.95,South,169,0.0,2.7,60,0.00,,---,0.00,VWS V14.00,2013-07-11 10:19:00,
2013-07-11 05:29:00,83.1,68.3,29.95,South,170,0.0,3.1,61,0.00,,---,0.00,VWS V14.00,2013-07-11 10:29:00,
2013-07-11 05:39:00,82.9,68.1,29.95,South,170,0.0,0.0,61,0.00,,---,0.00,VWS V14.00,2013-07-11 10:39:00,
2013-07-11 05:49:00,82.8,68.4,29.95,South,173,0.0,3.1,62,0.00,,---,0.00,VWS V14.00,2013-07-11 10:49:00,
2013-07-11 05:59:00,82.6,68.2,29.92,South,170,0.0,3.1,62,0.00,,---,0.00,VWS V14.00,2013-07-11 10:59:00,
2013-07-11 06:09:00,82.4,68.1,29.92,South,175,0.0,0.0,62,0.00,,---,0.00,VWS V14.00,2013-07-11 11:09:00,
2013-07-11 06:19:00,82.4,68.6,29.92,South,178,0.0,2.7,63,0.00,,---,0.00,VWS V14.00,2013-07-11 11:19:00,
2013-07-11 06:29:00,82.2,68.4,29.95,South,175,0.0,0.0,63,0.00,,---,0.00,VWS V14.00,2013-07-11 11:29:00,
2013-07-11 06:39:00,82.2,68.4,29.95,South,190,0.0,3.1,63,0.00,,---,0.00,VWS V14.00,2013-07-11 11:39:00,
2013-07-11 06:49:00,82.0,68.2,29.95,South,191,0.0,0.0,63,0.00,,---,0.00,VWS V14.00,2013-07-11 11:49:00,
2013-07-11 06:59:00,82.0,68.7,29.95,SSW,192,0.0,0.0,64,0.00,,---,0.00,VWS V14.00,2013-07-11 11:59:00,
2013-07-11 07:09:00,82.0,68.7,29.95,South,191,0.0,3.6,64,0.00,,---,0.00,VWS V14.00,2013-07-11 12:09:00,
2013-07-11 07:19:00,82.2,68.8,29.95,South,191,0.0,3.1,64,0.00,,---,0.00,VWS V14.00,2013-07-11 12:19:00,
2013-07-11 07:29:00,82.4,69.0,29.95,SSE,157,0.0,3.1,64,0.00,,---,0.00,VWS V14.00,2013-07-11 12:29:00,
2013-07-11 07:39:00,82.8,69.3,29.95,SSE,157,0.0,0.0,64,0.00,,---,0.00,VWS V14.00,2013-07-11 12:39:00,
2013-07-11 07:49:00,83.1,69.7,29.95,SSE,161,3.1,3.6,64,0.00,,---,0.00,VWS V14.00,2013-07-11 12:49:00,
2013-07-11 07:59:00,83.7,70.2,29.95,SSE,161,0.0,3.6,64,0.00,,---,0.00,VWS V14.00,2013-07-11 12:59:00,
2013-07-11 08:09:00,84.2,70.2,29.95,South,171,0.0,4.0,63,0.00,,---,0.00,VWS V14.00,2013-07-11 13:09:00,
2013-07-11 08:19:00,84.9,70.5,29.95,South,169,2.7,3.1,62,0.00,,---,0.00,VWS V14.00,2013-07-11 13:19:00,
2013-07-11 08:39:00,85.5,70.0,29.95,SW,222,0.0,4.0,60,0.00,,---,0.00,VWS V14.00,2013-07-11 13:39:00,
2013-07-11 08:49:00,85.6,70.2,29.95,SW,230,0.0,0.0,60,0.00,,---,0.00,VWS V14.00,2013-07-11 13:49:00,
2013-07-11 09:09:00,86.9,70.9,29.95,SW,228,0.0,0.0,59,0.00,,---,0.00,VWS V14.00,2013-07-11 14:09:00,
2013-07-11 09:29:00,88.2,71.0,29.95,SW,230,2.7,3.1,57,0.00,,---,0.00,VWS V14.00,2013-07-11 14:29:00,
2013-07-11 09:49:00,88.5,70.3,29.95,SW,230,0.0,3.1,55,0.00,,---,0.00,VWS V14.00,2013-07-11 14:49:00,
2013-07-11 09:59:00,88.9,70.1,29.95,SW,228,0.0,3.1,54,0.00,,---,0.00,VWS V14.00,2013-07-11 14:59:00,
2013-07-11 10:09:00,89.4,70.1,29.95,SW,227,0.0,3.6,53,0.00,,---,0.00,VWS V14.00,2013-07-11 15:09:00,
2013-07-11 10:19:00,90.1,70.2,29.95,SW,222,0.0,4.5,52,0.00,,---,0.00,VWS V14.00,2013-07-11 15:19:00,
2013-07-11 10:29:00,90.7,69.5,29.95,SW,222,0.0,3.6,50,0.00,,---,0.00,VWS V14.00,2013-07-11 15:29:00,
2013-07-11 10:39:00,91.8,69.9,29.95,NNW,330,0.0,4.0,49,0.00,,---,0.00,VWS V14.00,2013-07-11 15:39:00,
2013-07-11 10:49:00,92.8,70.3,29.95,WSW,238,3.1,3.6,48,0.00,,---,0.00,VWS V14.00,2013-07-11 15:49:00,
2013-07-11 10:59:00,93.6,69.0,29.95,North,9,2.7,4.0,45,0.00,,---,0.00,VWS V14.00,2013-07-11 15:59:00,
2013-07-11 11:19:00,94.3,68.4,29.95,NNE,20,2.7,4.0,43,0.00,,---,0.00,VWS V14.00,2013-07-11 16:19:00,
2013-07-11 11:39:00,94.8,66.8,29.95,NNW,346,2.7,4.9,40,0.00,,---,0.00,VWS V14.00,2013-07-11 16:39:00,
2013-07-11 11:59:00,96.3,66.6,29.95,NNW,346,0.0,0.0,38,0.00,,---,0.00,VWS V14.00,2013-07-11 16:59:00,
2013-07-11 12:09:00,97.2,66.6,29.95,North,356,3.6,4.0,37,0.00,,---,0.00,VWS V14.00,2013-07-11 17:09:00,
2013-07-11 12:19:00,97.2,65.8,29.95,WSW,249,0.0,3.6,36,0.00,,---,0.00,VWS V14.00,2013-07-11 17:19:00,
2013-07-11 12:29:00,97.5,65.3,29.95,NNW,346,0.0,4.0,35,0.00,,---,0.00,VWS V14.00,2013-07-11 17:29:00,
2013-07-11 12:39:00,98.4,65.2,29.95,NNW,347,0.0,0.0,34,0.00,,---,0.00,VWS V14.00,2013-07-11 17:39:00,
2013-07-11 12:59:00,99.9,63.8,29.95,NE,46,0.0,4.5,31,0.00,,---,0.00,VWS V14.00,2013-07-11 17:59:00,
2013-07-11 13:19:00,100.0,63.1,29.92,NNW,342,0.0,4.5,30,0.00,,---,0.00,VWS V14.00,2013-07-11 18:19:00,
2013-07-11 13:39:00,98.6,61.8,29.92,NE,54,0.0,4.0,30,0.00,,---,0.00,VWS V14.00,2013-07-11 18:39:00,
2013-07-11 13:49:00,99.3,62.4,29.92,ESE,111,3.1,3.6,30,0.00,,---,0.00,VWS V14.00,2013-07-11 18:49:00,
2013-07-11 13:59:00,100.4,63.4,29.92,SE,146,3.1,4.5,30,0.00,,---,0.00,VWS V14.00,2013-07-11 18:59:00,
2013-07-11 14:09:00,101.1,63.0,29.92,SE,127,0.0,4.0,29,0.00,,---,0.00,VWS V14.00,2013-07-11 19:09:00,
2013-07-11 14:19:00,100.2,61.3,29.92,ESE,122,3.1,4.0,28,0.00,,---,0.00,VWS V14.00,2013-07-11 19:19:00,
2013-07-11 14:39:00,100.9,61.9,29.89,SSE,160,0.0,4.5,28,0.00,,---,0.00,VWS V14.00,2013-07-11 19:39:00,
2013-07-11 14:49:00,101.5,61.3,29.89,SE,144,0.0,4.0,27,0.00,,---,0.00,VWS V14.00,2013-07-11 19:49:00,
2013-07-11 14:59:00,102.4,62.1,29.89,SSE,150,3.6,4.5,27,0.00,,---,0.00,VWS V14.00,2013-07-11 19:59:00,
2013-07-11 15:09:00,102.2,61.9,29.89,NNW,342,3.1,5.4,27,0.00,,---,0.00,VWS V14.00,2013-07-11 20:09:00,
2013-07-11 15:19:00,102.0,60.7,29.89,NE,40,0.0,4.0,26,0.00,,---,0.00,VWS V14.00,2013-07-11 20:19:00,
2013-07-11 15:29:00,100.8,60.7,29.86,NE,55,2.7,3.6,27,0.00,,---,0.00,VWS V14.00,2013-07-11 20:29:00,
2013-07-11 15:39:00,99.9,59.9,29.86,NE,56,0.0,3.1,27,0.00,,---,0.00,VWS V14.00,2013-07-11 20:39:00,
2013-07-11 15:59:00,99.5,59.6,29.86,ENE,59,0.0,0.0,27,0.00,,---,0.00,VWS V14.00,2013-07-11 20:59:00,
2013-07-11 16:19:00,99.3,60.5,29.86,South,189,0.0,5.4,28,0.00,,---,0.00,VWS V14.00,2013-07-11 21:19:00,
2013-07-11 16:29:00,97.9,60.2,29.86,NE,48,2.7,6.7,29,0.00,,---,0.00,VWS V14.00,2013-07-11 21:29:00,
2013-07-11 16:39:00,96.8,60.3,29.86,South,190,2.7,6.7,30,0.00,,---,0.00,VWS V14.00,2013-07-11 21:39:00,
2013-07-11 16:50:00,95.7,61.2,29.86,SSW,197,3.1,5.4,32,0.00,,---,0.00,VWS V14.00,2013-07-11 21:50:00,
2013-07-11 17:00:00,91.2,62.8,29.89,NW,318,0.0,4.0,39,0.00,,---,0.00,VWS V14.00,2013-07-11 22:00:00,
2013-07-11 17:10:00,88.2,64.2,29.89,WNW,291,0.0,3.1,45,0.00,,---,0.00,VWS V14.00,2013-07-11 22:10:00,
2013-07-11 17:20:00,88.3,64.9,29.89,West,274,0.0,0.0,46,0.00,,---,0.00,VWS V14.00,2013-07-11 22:20:00,
2013-07-11 17:30:00,89.1,64.3,29.89,SW,225,0.0,0.0,44,0.00,,---,0.00,VWS V14.00,2013-07-11 22:30:00,
2013-07-11 17:50:00,90.1,65.3,29.86,SSW,199,0.0,4.0,44,0.00,,---,0.00,VWS V14.00,2013-07-11 22:50:00,
2013-07-11 18:00:00,90.5,65.6,29.86,SSW,197,0.0,0.0,44,0.00,,---,0.00,VWS V14.00,2013-07-11 23:00:00,
2013-07-11 18:10:00,90.9,65.3,29.86,SSW,201,0.0,0.0,43,0.00,,---,0.00,VWS V14.00,2013-07-11 23:10:00,
2013-07-11 18:30:00,91.0,65.4,29.86,WSW,237,4.0,6.9,43,0.00,,---,0.00,VWS V14.00,2013-07-11 23:30:00,
2013-07-11 18:40:00,90.9,65.9,29.89,SSW,193,4.0,8.7,44,0.00,,---,0.00,VWS V14.00,2013-07-11 23:40:00,
2013-07-11 18:50:00,90.1,65.9,29.89,NE,35,0.0,8.7,45,0.00,,---,0.00,VWS V14.00,2013-07-11 23:50:00,
2013-07-11 19:00:00,89.8,66.3,29.89,SSW,201,3.1,6.9,46,0.00,,---,0.00,VWS V14.00,2013-07-12 00:00:00,
2013-07-11 19:20:00,89.2,65.8,29.86,ESE,115,2.7,6.7,46,0.00,,---,0.00,VWS V14.00,2013-07-12 00:20:00,
2013-07-11 19:30:00,88.9,65.4,29.86,SSE,148,4.0,5.8,46,0.00,,---,0.00,VWS V14.00,2013-07-12 00:30:00,
2013-07-11 19:40:00,88.7,65.9,29.89,SW,214,4.9,9.6,47,0.00,,---,0.00,VWS V14.00,2013-07-12 00:40:00,
2013-07-11 19:50:00,88.5,65.1,29.89,SSW,196,3.1,7.8,46,0.00,,---,0.00,VWS V14.00,2013-07-12 00:50:00,
2013-07-11 20:00:00,88.2,65.4,29.89,SE,132,3.1,6.7,47,0.00,,---,0.00,VWS V14.00,2013-07-12 01:00:00,
2013-07-11 20:10:00,87.6,65.5,29.89,SSE,147,0.0,6.3,48,0.00,,---,0.00,VWS V14.00,2013-07-12 01:10:00,
2013-07-11 20:20:00,87.3,65.8,29.89,SSW,202,0.0,5.4,49,0.00,,---,0.00,VWS V14.00,2013-07-12 01:20:00,
2013-07-11 20:30:00,87.1,65.6,29.89,SE,138,2.7,6.9,49,0.00,,---,0.00,VWS V14.00,2013-07-12 01:30:00,
2013-07-11 21:00:00,86.4,65.5,29.89,ESE,123,3.1,4.0,50,0.00,,---,0.00,VWS V14.00,2013-07-12 02:00:00,
2013-07-11 21:10:00,86.0,65.8,29.89,SE,125,3.1,3.6,51,0.00,,---,0.00,VWS V14.00,2013-07-12 02:10:00,
2013-07-11 21:20:00,85.6,65.4,29.89,ESE,117,0.0,3.1,51,0.00,,---,0.00,VWS V14.00,2013-07-12 02:20:00,
2013-07-11 21:30:00,85.5,65.8,29.89,SE,124,0.0,4.5,52,0.00,,---,0.00,VWS V14.00,2013-07-12 02:30:00,
2013-07-11 21:40:00,85.3,65.7,29.89,ESE,115,0.0,4.0,52,0.00,,---,0.00,VWS V14.00,2013-07-12 02:40:00,
2013-07-11 21:50:00,85.1,66.1,29.89,ESE,122,2.7,3.6,53,0.00,,---,0.00,VWS V14.00,2013-07-12 02:50:00,
2013-07-11 22:00:00,84.9,65.9,29.89,ESE,121,0.0,4.5,53,0.00,,---,0.00,VWS V14.00,2013-07-12 03:00:00,
2013-07-11 22:20:00,84.7,66.3,29.89,SE,124,0.0,3.6,54,0.00,,---,0.00,VWS V14.00,2013-07-12 03:20:00,
2013-07-11 22:30:00,84.4,66.5,29.89,ESE,119,0.0,3.6,55,0.00,,---,0.00,VWS V14.00,2013-07-12 03:30:00,
2013-07-11 22:40:00,84.2,66.3,29.89,ESE,120,0.0,4.5,55,0.00,,---,0.00,VWS V14.00,2013-07-12 03:40:00,
2013-07-11 22:50:00,84.0,66.7,29.89,ESE,121,0.0,5.8,56,0.00,,---,0.00,VWS V14.00,2013-07-12 03:50:00,
2013-07-11 23:00:00,83.8,67.0,29.89,ESE,119,0.0,5.8,57,0.00,,---,0.00,VWS V14.00,2013-07-12 04:00:00,
2013-07-11 23:10:00,83.7,67.3,29.89,NNE,29,0.0,6.9,58,0.00,,---,0.00,VWS V14.00,2013-07-12 04:10:00,
2013-07-11 23:20:00,83.3,67.0,29.89,ENE,67,0.0,4.0,58,0.00,,---,0.00,VWS V14.00,2013-07-12 04:20:00,
2013-07-11 23:30:00,82.9,67.6,29.92,ENE,64,0.0,2.7,60,0.00,,---,0.00,VWS V14.00,2013-07-12 04:30:00,
2013-07-11 23:40:00,82.6,67.3,29.92,ENE,60,0.0,0.0,60,0.00,,---,0.00,VWS V14.00,2013-07-12 04:40:00,
2013-07-11 23:50:00,82.2,67.4,29.92,ENE,60,0.0,0.0,61,0.00,,---,0.00,VWS V14.00,2013-07-12 04:50:00,